Location: Unspecified
(0.0000°N, 0.0000°E)
Time: 14:00:47
(UTC+00:00)

TIMED - Pass Details

Date: 31 July 2021
Orbit: 602 x 603 km, 74.1° (Epoch: 20 September)

Event Time Altitude Azimuth Distance (km) Brightness Sun altitude
Rises 04:45:51 0° 342° (NNW) 2,836 8.0 -19.1°
Reaches altitude 10° 04:48:05 10° 338° (NNW) 1,937 7.1 -18.6°
Maximum altitude 04:52:21 62° 258° (WSW) 680 4.4 -17.6°
Drops below altitude 10° 04:56:39 10° 177° (S) 1,946 6.9 -16.5°
Sets 04:58:55 0° 174° (S) 2,852 7.8 -16.0°
